Home   Weather   Chattanooga   Past weeks

Flag for USA Past Weather in Chattanooga, Tennessee, USA — Yesterday and Last 2 Weeks

Now
54 °F

Fog.


Feels Like: 53 °F
Forecast: 48 / 59 °F
Wind: 5 mph from Southeast

Location: Lovell Field

Current Time: Dec 6, 2016 at 11:25:02 am

Latest Report: Dec 6, 2016 at 11:00 am


Visibility: 4 mi

Pressure: 29.72 "Hg

Humidity: 93%

Dew Point: 52 °F

Location of ChattanoogaLocation

Past Weather in Chattanooga — Graph

°F

Chattanooga Temperature Yesterday

Maximum temperature yesterday: 52 °F (at 12:53 pm)
Minimum temperature yesterday: 46 °F (at 12:00 am)
Average temperature yesterday: 49 °F

High & Low Weather Summary for the Past Weeks

 TemperatureHumidityPressure
High72 °F (Nov 29, 2:53 pm)97% (Nov 24, 6:04 am)30.39 "Hg (Nov 24, 6:04 am)
Low27 °F (Nov 27, 5:53 am)16% (Nov 21, 3:53 pm)29.61 "Hg (Nov 28, 7:53 pm)
Average50 °F68%30.09 "Hg
* Reported Nov 21 9:53 am — Dec 6 9:53 am, Chattanooga, Weather by CustomWeather, © 2016

Note: Actual official high and low records may vary slightly from our data, if they occured in-between our weather recording intervals... More about our weather records

Advertising

Chattanooga Weather History for the Previous 24 Hours

Scroll right to see more
 ConditionsComfort  
Time TempWeatherWind HumidityBarometerVisibility
9:53 am
Tue, Dec 6
51 °FRain. Fog.3 mph92%29.70 "Hg1 mi
8:53 am51 °FFog.6 mph92%29.67 "Hg2 mi
7:58 am51 °FRain. Fog.7 mph92%29.70 "Hg1 mi
6:53 am51 °FDrizzle. Fog.6 mph92%29.67 "Hg1 mi
5:53 am51 °FLight rain. Fog.5 mph92%29.66 "Hg1 mi
5:00 am51 °FLight rain. Mostly cloudy.No wind92%29.71 "Hg7 mi
4:02 am51 °FLight rain. Fog.6 mph92%29.75 "Hg6 mi
3:53 am51 °FLight rain. Fog.5 mph92%29.75 "Hg5 mi
2:53 am51 °FRain. Fog.No wind92%29.79 "Hg4 mi
1:53 am50 °FRain. Fog.5 mph96%29.79 "Hg3 mi
12:53 am50 °FLight rain. Fog.No wind96%29.79 "Hg6 mi
11:53 pm
Mon, Dec 5
50 °FLight rain. Fog.No wind93%29.82 "Hg2 mi
10:53 pm51 °FLight rain. Fog.6 mph89%29.83 "Hg2 mi
9:53 pm51 °FLight rain. Fog.3 mph89%29.85 "Hg4 mi
8:53 pm50 °FLight rain. Fog.5 mph93%29.85 "Hg3 mi
7:53 pm50 °FLight rain. Fog.5 mph93%29.90 "Hg2 mi
6:53 pm51 °FLight rain. Fog.5 mph89%29.93 "Hg3 mi
5:53 pm51 °FLight rain. Fog.3 mph86%29.92 "Hg5 mi
4:53 pm51 °FFog.6 mph89%29.93 "Hg3 mi
4:02 pm51 °FLight rain. Fog.7 mph89%29.94 "Hg3 mi
3:53 pm51 °FRain. Fog.5 mph89%29.95 "Hg2 mi
2:53 pm51 °FRain. Fog.6 mph89%29.96 "Hg3 mi
1:53 pm51 °FRain. Fog.6 mph86%29.98 "Hg1 mi
12:53 pm52 °FFog.9 mph80%30.00 "Hg3 mi
Weather by CustomWeather, © 2016

See weather overviewHow to use our weather pages